Location: Unspecified
(0.0000°N, 0.0000°E)
Time: 19:02:01
(UTC+00:00)

S-56A Canister/Altair - Pass Details

Date: 27 November 2019
Orbit: 633 x 2500 km, 38.9° (Epoch: 08 December)

Event Time Altitude Azimuth Distance (km) Brightness Sun altitude
Rises 08:32:01 0° 208° (SSW) 5,189 11.8 37.9°
Reaches altitude 10° 08:35:46 10° 197° (SSW) 4,446 11.6 38.7°
Maximum altitude 08:46:41 32° 139° (SE) 3,507 12.6 41.1°
Drops below altitude 10° 08:59:12 10° 83° (E) 5,158 12.5 43.8°
Sets 09:03:53 0° 74° (ENE) 6,117 12.6 44.8°
